• In Österreich
  • Länderverzeichnis
  • Für 7 Tage
  • Wassertemperatur
  • Satellitenkarten
  • Wetterkarte
  • News
  • Widgets
  • user-avatar
    Anmelden

    Stündliche Wetter Kfar Nahum (Capernaum )

    Heute, 19 November, Sonntag

    Zeit Temperatur Niederschläge Wind Luftdruck Luftfeuchtigkeit
    00:00 +24°C° 0 mm 1 m/S 756 mmHg 32%
    01:00 +24°C° 0 mm 1 m/S 756 mmHg 35%
    02:00 +23°C° 0 mm 2 m/S 756 mmHg 37%
    03:00 +23°C° 0,1 mm 2 m/S 756 mmHg 43%
    04:00 +21°C° 0,1 mm 2 m/S 756 mmHg 50%
    05:00 +20°C° 0,1 mm 2 m/S 756 mmHg 56%
    06:00 +21°C° 0 mm 2 m/S 757 mmHg 60%
    07:00 +23°C° 0 mm 2 m/S 757 mmHg 65%
    08:00 +23°C° 0 mm 2 m/S 757 mmHg 70%
    09:00 +24°C° 0 mm 3 m/S 757 mmHg 66%
    10:00 +25°C° 0 mm 3 m/S 757 mmHg 61%
    11:00 +26°C° 0 mm 4 m/S 757 mmHg 57%
    12:00 +26°C° 0 mm 4 m/S 757 mmHg 55%
    13:00 +26°C° 0 mm 4 m/S 757 mmHg 53%
    14:00 +26°C° 0 mm 4 m/S 757 mmHg 52%
    15:00 +25°C° 0 mm 4 m/S 757 mmHg 57%
    16:00 +23°C° 0 mm 4 m/S 757 mmHg 62%
    17:00 +22°C° 0 mm 3 m/S 758 mmHg 67%
    18:00 +22°C° 0 mm 3 m/S 758 mmHg 71%
    19:00 +21°C° 0 mm 2 m/S 758 mmHg 74%
    20:00 +20°C° 0 mm 2 m/S 758 mmHg 78%
    21:00 +20°C° 0 mm 2 m/S 759 mmHg 80%
    22:00 +21°C° 0 mm 1 m/S 759 mmHg 81%
    23:00 +20°C° 0 mm 1 m/S 759 mmHg 83%

    Morgen, 20 November, Montag

    Zeit Temperatur Niederschläge Wind Luftdruck Luftfeuchtigkeit
    00:00 +20°C° 0 mm 1 m/S 759 mmHg 84%
    01:00 +20°C° 0 mm 1 m/S 759 mmHg 84%
    02:00 +19°C° 0 mm 1 m/S 759 mmHg 85%
    03:00 +19°C° 0 mm 1 m/S 758 mmHg 85%
    04:00 +19°C° 0 mm 1 m/S 758 mmHg 85%
    05:00 +19°C° 0 mm 1 m/S 758 mmHg 85%
    06:00 +19°C° 0 mm 1 m/S 758 mmHg 80%
    07:00 +20°C° 0 mm 1 m/S 758 mmHg 76%
    08:00 +21°C° 0 mm 1 m/S 759 mmHg 72%
    09:00 +21°C° 0 mm 2 m/S 758 mmHg 65%
    10:00 +22°C° 0 mm 3 m/S 758 mmHg 59%
    11:00 +24°C° 0 mm 3 m/S 758 mmHg 52%
    12:00 +23°C° 0,1 mm 4 m/S 758 mmHg 51%
    13:00 +23°C° 0,1 mm 4 m/S 757 mmHg 50%
    14:00 +25°C° 0,1 mm 5 m/S 757 mmHg 49%
    15:00 +23°C° 0,3 mm 5 m/S 757 mmHg 54%
    16:00 +22°C° 0,3 mm 4 m/S 757 mmHg 60%
    17:00 +21°C° 0,3 mm 4 m/S 757 mmHg 66%
    18:00 +20°C° 0,3 mm 4 m/S 757 mmHg 69%
    19:00 +20°C° 0,3 mm 3 m/S 757 mmHg 73%
    20:00 +19°C° 0,3 mm 3 m/S 757 mmHg 76%
    21:00 +19°C° 0,7 mm 3 m/S 757 mmHg 76%
    22:00 +19°C° 0,7 mm 3 m/S 757 mmHg 76%
    23:00 +19°C° 0,7 mm 4 m/S 757 mmHg 76%

    übermorgen, 21 November, Dienstag

    Zeit Temperatur Niederschläge Wind Luftdruck Luftfeuchtigkeit
    00:00 +18°C° 0,4 mm 4 m/S 756 mmHg 75%
    01:00 +18°C° 0,4 mm 4 m/S 756 mmHg 74%
    02:00 +18°C° 0,4 mm 4 m/S 756 mmHg 74%
    03:00 +18°C° 0,6 mm 4 m/S 756 mmHg 74%
    04:00 +17°C° 0,6 mm 5 m/S 755 mmHg 75%
    05:00 +17°C° 0,6 mm 5 m/S 755 mmHg 76%
    06:00 +17°C° 0,6 mm 6 m/S 755 mmHg 75%
    07:00 +17°C° 0,6 mm 6 m/S 755 mmHg 74%
    08:00 +18°C° 0,6 mm 7 m/S 755 mmHg 73%
    09:00 +18°C° 1,6 mm 7 m/S 755 mmHg 76%
    10:00 +18°C° 1,6 mm 7 m/S 755 mmHg 78%
    11:00 +17°C° 1,6 mm 7 m/S 755 mmHg 81%
    12:00 +18°C° 0,8 mm 8 m/S 755 mmHg 75%
    13:00 +18°C° 0,8 mm 8 m/S 755 mmHg 69%
    14:00 +18°C° 0,8 mm 9 m/S 755 mmHg 64%
    15:00 +17°C° 0,2 mm 8 m/S 755 mmHg 65%
    16:00 +17°C° 0,2 mm 7 m/S 755 mmHg 66%
    17:00 +16°C° 0,2 mm 6 m/S 755 mmHg 67%
    18:00 +16°C° 0,2 mm 6 m/S 756 mmHg 69%
    19:00 +15°C° 0,2 mm 6 m/S 756 mmHg 71%
    20:00 +15°C° 0,2 mm 5 m/S 756 mmHg 74%
    21:00 +15°C° 0,2 mm 5 m/S 757 mmHg 73%
    22:00 +15°C° 0,2 mm 5 m/S 757 mmHg 73%
    23:00 +15°C° 0,2 mm 5 m/S 757 mmHg 73%

    22 November, Mittwoch

    Zeit Temperatur Niederschläge Wind Luftdruck Luftfeuchtigkeit
    00:00 +15°C° 0,2 mm 5 m/S 757 mmHg 72%
    01:00 +15°C° 0,2 mm 5 m/S 757 mmHg 72%
    02:00 +15°C° 0,2 mm 5 m/S 757 mmHg 71%
    03:00 +15°C° 0,2 mm 4 m/S 757 mmHg 72%
    04:00 +15°C° 0,2 mm 4 m/S 757 mmHg 72%
    05:00 +16°C° 0,2 mm 3 m/S 757 mmHg 73%
    06:00 +16°C° 0,2 mm 3 m/S 757 mmHg 71%
    07:00 +17°C° 0,2 mm 3 m/S 758 mmHg 69%
    08:00 +17°C° 0,2 mm 3 m/S 758 mmHg 67%
    09:00 +18°C° 0,1 mm 4 m/S 758 mmHg 63%
    10:00 +18°C° 0,1 mm 4 m/S 758 mmHg 60%
    11:00 +19°C° 0,1 mm 4 m/S 758 mmHg 57%
    12:00 +19°C° 0,1 mm 5 m/S 758 mmHg 56%
    13:00 +19°C° 0,1 mm 5 m/S 758 mmHg 55%
    14:00 +19°C° 0,1 mm 5 m/S 758 mmHg 54%
    15:00 +19°C° 0 mm 4 m/S 758 mmHg 57%
    16:00 +18°C° 0 mm 4 m/S 758 mmHg 60%
    17:00 +17°C° 0 mm 3 m/S 759 mmHg 63%
    18:00 +17°C° 0 mm 3 m/S 759 mmHg 65%
    19:00 +17°C° 0 mm 3 m/S 760 mmHg 66%
    20:00 +16°C° 0 mm 2 m/S 760 mmHg 68%
    21:00 +16°C° 0 mm 2 m/S 760 mmHg 69%
    22:00 +15°C° 0 mm 2 m/S 760 mmHg 70%
    23:00 +15°C° 0 mm 2 m/S 761 mmHg 72%

    23 November, Donnerstag

    Zeit Temperatur Niederschläge Wind Luftdruck Luftfeuchtigkeit
    00:00 +15°C° 0 mm 2 m/S 761 mmHg 72%
    01:00 +15°C° 0 mm 2 m/S 761 mmHg 72%
    02:00 +14°C° 0 mm 1 m/S 761 mmHg 72%
    03:00 +14°C° 0 mm 1 m/S 761 mmHg 72%
    04:00 +14°C° 0 mm 1 m/S 761 mmHg 72%
    05:00 +13°C° 0 mm 1 m/S 761 mmHg 72%
    06:00 +14°C° 0 mm 1 m/S 762 mmHg 69%
    07:00 +15°C° 0 mm 1 m/S 762 mmHg 65%
    08:00 +16°C° 0 mm 1 m/S 762 mmHg 62%
    09:00 +18°C° 0 mm 1 m/S 762 mmHg 56%
    10:00 +19°C° 0 mm 1 m/S 762 mmHg 51%
    11:00 +20°C° 0 mm 1 m/S 762 mmHg 45%
    12:00 +20°C° 0 mm 1 m/S 762 mmHg 43%
    13:00 +21°C° 0 mm 1 m/S 761 mmHg 41%
    14:00 +21°C° 0 mm 1 m/S 761 mmHg 39%
    15:00 +21°C° 0 mm 1 m/S 761 mmHg 42%
    16:00 +19°C° 0 mm 2 m/S 761 mmHg 45%
    17:00 +18°C° 0 mm 2 m/S 762 mmHg 48%
    18:00 +18°C° 0 mm 2 m/S 762 mmHg 51%
    19:00 +17°C° 0 mm 2 m/S 762 mmHg 53%
    20:00 +17°C° 0 mm 2 m/S 762 mmHg 55%
    21:00 +18°C° 0 mm 1 m/S 762 mmHg 56%
    22:00 +16°C° 0 mm 1 m/S 763 mmHg 56%
    23:00 +16°C° 0 mm 1 m/S 763 mmHg 57%

    24 November, Freitag

    Zeit Temperatur Niederschläge Wind Luftdruck Luftfeuchtigkeit
    00:00 +16°C° 0 mm 1 m/S 763 mmHg 56%
    01:00 +15°C° 0 mm 1 m/S 762 mmHg 56%
    02:00 +15°C° 0 mm 1 m/S 762 mmHg 55%
    03:00 +15°C° 0 mm 2 m/S 762 mmHg 55%
    04:00 +15°C° 0 mm 2 m/S 763 mmHg 54%
    05:00 +14°C° 0 mm 2 m/S 763 mmHg 53%
    06:00 +15°C° 0 mm 2 m/S 763 mmHg 49%
    07:00 +16°C° 0 mm 2 m/S 763 mmHg 45%
    08:00 +17°C° 0 mm 2 m/S 764 mmHg 41%
    09:00 +18°C° 0 mm 2 m/S 763 mmHg 37%
    10:00 +20°C° 0 mm 2 m/S 763 mmHg 32%
    11:00 +21°C° 0 mm 2 m/S 763 mmHg 27%
    12:00 +21°C° 0 mm 2 m/S 763 mmHg 25%
    13:00 +23°C° 0 mm 2 m/S 763 mmHg 24%
    14:00 +23°C° 0 mm 1 m/S 762 mmHg 22%
    15:00 +21°C° 0 mm 2 m/S 762 mmHg 25%
    16:00 +20°C° 0 mm 2 m/S 763 mmHg 27%
    17:00 +19°C° 0 mm 2 m/S 763 mmHg 30%
    18:00 +19°C° 0 mm 2 m/S 763 mmHg 31%
    19:00 +18°C° 0 mm 2 m/S 763 mmHg 31%
    20:00 +18°C° 0 mm 2 m/S 764 mmHg 32%
    21:00 +17°C° 0 mm 2 m/S 764 mmHg 31%
    22:00 +17°C° 0 mm 2 m/S 764 mmHg 30%
    23:00 +17°C° 0 mm 2 m/S 764 mmHg 30%
    Mehr zeigen